Other Public Products
Issued by NWS Grand Forks, ND

Home | Current Version | Previous Version | Graphics & Text | Print | Product List | Glossary Off
Versions: 1 2 3 4 5 6 7 8 9 10 11 12 13 14 15 16 17 18 19 20 21 22 23 24 25 26 27 28 29 30 31 32 33 34 35 36 37 38 39 40 41 42 43 44 45 46 47 48 49 50

589
FPUS83 KFGF 170310
OPUFGF
PRAIRIE TO PINES WEATHER ROUNDUP
NATIONAL WEATHER SERVICE EASTERN NORTH DAKOTA/GRAND FORKS ND
900 PM CST MON JAN 16 2017

 **SATELLITE DATA USED TO AUGMENT SKY COVER AT AUTOMATED STATIONS**
 *****  WEATHER ACROSS EASTERN NORTH DAKOTA  *****

CITY           SKY/WX    TMP DP  RH WIND       PRES   REMARKS
GRAND FORKS    FAIR       5   1  83 SW5       30.03F WCI  -4
GRAND FORKS AF FAIR       5   1  83 SW3       30.03S
GRAND CITY NWS NOT AVBL
BUXTON         NOT AVBL
DEVILS LAKE    FAIR       8   6  92 W6        30.02  WCI  -2
FARGO          FAIR      10   7  87 W3        30.04F
WAHPETON ARPT  FAIR      10   5  79 CALM      30.05S
$$

 *****  WEATHER ACROSS CENTRAL AND WESTERN NORTH DAKOTA  *****

CITY           SKY/WX    TMP DP  RH WIND       PRES   REMARKS
JAMESTOWN      FAIR      10   7  87 NW8       30.01F WCI  -2
BISMARCK       FAIR      12   8  84 NW3       30.08S
MINOT          FAIR      18  13  80 SW14      30.02F WCI   4
MINOT AFB      FAIR      11   7  85 W5        30.01F WCI   3
GARRISON         N/A      9   5  84 CALM      30.04F
WILLISTON      FAIR      11   9  92 S5        30.07F WCI   3
DICKINSON      FAIR      13   8  81 SW5       30.03S WCI   5
HETTINGER      FAIR      10   6  84 W3        30.07S
$$

 *****  OTHER OBSERVATIONS NORTHEAST NORTH DAKOTA  *****

CITY           SKY/WX    TMP DP  RH WIND       PRES   REMARKS
WALHALLA       NOT AVBL
LANGDON        NOT AVBL
CAVALIER         N/A      5   1  85 CALM      30.02S
GRAFTON        FAIR       3   1  92 SE8       30.05S WCI -10
CANDO          NOT AVBL
FORT TOTTEN      N/A     12  10  92 CALM      29.95S
ROLLA            N/A    N/A N/A N/A MISG        N/A
RUGBY            N/A      5   3  92 W7        30.03F WCI  -7
 ***** THE ABOVE OBSERVATIONS ARE NON NWS ARE NOT QUALITY
        CONTROLLED AND MAY MIS-REPORT RAIN FOR SNOW...
$$

 *****  OTHER OBSERVATIONS SOUTHEAST NORTH DAKOTA *****

CITY           SKY/WX    TMP DP  RH WIND       PRES   REMARKS
COOPERSTOWN    FAIR      10   7  85 NW9       30.01S WCI  -2
VALLEY CITY    FAIR       9   9 100 CALM      30.04S
OAKES          NOT AVBL
GWINNER        FAIR      10   9  92 W8        30.03F WCI  -1
SHEYENNE NWR     N/A      5   1  81 W5        29.95S WCI  -4
BUFFALO        NOT AVBL
WYNDMERE       NOT AVBL
 ***** THE ABOVE OBSERVATIONS ARE NON NWS ARE NOT QUALITY
       CONTROLLED AND MAY MIS-REPORT RAIN FOR SNOW...
$$

  *****  WEATHER ACROSS NORTHERN MINNESOTA  *****

CITY           SKY/WX    TMP DP  RH WIND       PRES   REMARKS
FLAG ISLAND    FAIR       7   3  85 CALM      30.02S
WARROAD        FAIR       7   1  78 CALM      30.02F
ROSEAU         FAIR       9   3  78 CALM      30.03S
HALLOCK        FAIR       7   3  85 SE6       30.03S WCI  -3
THF RVR FALLS  FAIR       7   5  91 SE3       30.03S
HALSTAD        NOT AVBL
FOSSTON        FAIR       9   5  85 S6        30.01F WCI  -1
BAUDETTE       FAIR       8   5  87 NW3       30.00S
WASKISH        FAIR       7   3  85 CALM      30.00F
CROOKSTON      FAIR       5   3  92 S3        30.05S
$$
  *****  WEATHER ACROSS CENTRAL AND WEST MINNESOTA  *****

CITY           SKY/WX    TMP DP  RH WIND       PRES   REMARKS
BEMIDJI        FAIR      14  12  93 CALM      29.99F
PARK RAPIDS    HAZE       7   1  76 CALM      29.99S VSB 1/2
WADENA         FAIR       9   9 100 CALM      30.00S FOG
DETROIT LAKES  FAIR      12  10  92 CALM      30.02S
MOORHEAD       FAIR       3   0  85 CALM      30.04F
FERGUS FALLS   FAIR      12  10  92 CALM      30.07F FOG
ELBOW LAKE     FAIR      11  10  95 N3        30.03S FOG
MORRIS MN      FAIR      12  10  92 NW7       30.01F FOG     WCI   2
STAPLES        FAIR      10  10 100 CALM      30.01S FOG
WHEATON        FAIR      16  14  93 W3        30.06S
$$
  *****  WEATHER ELSEWHERE ACROSS MINNESOTA  *****

CITY           SKY/WX    TMP DP  RH WIND       PRES   REMARKS
DULUTH         FAIR      21  15  78 CALM      29.99F
INTRNTL FALLS  FAIR       7   3  84 CALM      30.00F
ELY            FAIR      12  12 100 SE5       30.00F WCI   4
CLOQUET        FAIR      19  16  86 CALM      30.00F
BRAINERD       FAIR      13  10  88 CALM      30.01F FOG
HIBBING        FAIR       8   7  95 CALM      30.00F FOG
ALEXANDRIA     FAIR      14  11  87 CALM      30.01S FOG
SAINT CLOUD    MOCLDY    22  20  92 NW5       30.00F WCI  16
MINNEAPOLIS    FRZ RAIN  31  26  82 N8        29.98F WCI  23
$$

  *****  WEATHER ACROSS SOUTH DAKOTA  *****

CITY           SKY/WX    TMP DP  RH WIND       PRES   REMARKS
SIOUX FALLS    CLOUDY    31  28  89 N9        29.97F WCI  23
BROOKINGS      MOCLDY    15  13  91 N3        29.97F
WATERTOWN      FAIR       8   5  87 CALM      29.99S FOG
HURON          FAIR       6   3  87 NW6       30.05S WCI  -4
SISSETON         N/A     11   8  88 N6        30.02F WCI   1
ABERDEEN       FAIR       3   1  91 NW3       30.05F
MITCHELL       FAIR      14  10  84 NW8       30.06S WCI   3
PIERRE         FAIR      14  10  84 W5        30.06F WCI   6
MOBRIDGE       FAIR       9   4  80 NE3       30.03F
RAPID CITY     FAIR      25  13  60 N14       30.07F WCI  13
$$

  *****  SOME WEATHER IN NEARBY STATES *****

CITY           SKY/WX    TMP DP  RH WIND       PRES   REMARKS
GLASGOW MT     FAIR      11   6  81 E10       30.00F WCI  -3
GREAT FALLS MT FAIR      32  18  56 S23       29.94F WCI  19
CHEYENNE WY    FAIR      25  13  60 NW5       30.09S WCI  19
SCOTTSBLUFF NE FAIR      25  18  74 NW7       30.11S WCI  17
OMAHA NE       CLOUDY    34  30  85 NW13      29.96R FOG     WCI  25
DES MOINES IA  FOG       34  33  96 CALM      29.88F VSB 1/4
DAVENPORT IA   FOG       35  34  96 E9        29.86F VSB 1/2
CHICAGO IL     DRZL/FOG  36  36 100 E8        29.92F VSB 1
EAU CLAIRE WI  FRZ RAIN  31  29  92 NE7       29.98F FOG     WCI  24
LA CROSSE WI   LGT RAIN  37  32  82 E5        29.95F
$$

  *****  SOME NATIONAL WEATHER *****

CITY           SKY/WX    TMP DP  RH WIND       PRES   REMARKS
LA GUARDIA NY  MOCLDY    43  24  47 SW9       30.32F
RALEIGH NC     CLOUDY    49  41  74 SW5       30.35F
ATLANTA GA     FAIR      60  55  83 E9        30.25S
NEW ORLEANS LA MOCLDY    69  66  90 SE9       30.13S
OKLAHOMA CITY  CLOUDY    40  34  79 NW9       30.07R
ALBUQUERQUE NM CLOUDY    43  39  86 SW8       30.07R
SALT LAKE CITY FAIR      24  19  81 NW5       30.29S WCI  18
LOS ANGELES CA FAIR      57  52  83 W9        30.04S
BOISE ID       FAIR       4   0  83 SW5       30.42F FOG     WCI  -5
SEATTLE WA     CLOUDY    44  33  65 S7        30.00R
$$

*** WEATHER ACROSS MANITOBA...SASKATCHEWAN AND ONTARIO ***
                ***ONTARIO***

CITY           SKY/WX    TMP DP  RH WIND       PRES   REMARKS
GERALDTON      PTCLDY    16  14  93 NE6       30.10F WCI   7
THUNDER BAY    CLOUDY    18  14  86 CALM      30.07F
SIOUX LOOKOUT  CLEAR      5   1  85 CALM      30.01F
TORONTO        MOCLDY    32  19  59 W2        30.23S
BIG TROUT LK   FLURRIES  19  19 100 S14       29.97F WCI   6
PICKLE LAKE    NOT AVBL
DRYDEN         CLEAR     16  14  93 S2        30.00S
KENORA         PTCLDY    10   7  85 SE3       29.99F
$$
                *** MANITOBA***

CITY           SKY/WX    TMP DP  RH WIND       PRES   REMARKS
BRANDON        CLEAR      9   5  85 SW9       29.99F WCI  -5
DAUPHIN        PTCLDY    21  16  79 W13       29.94F WCI   9
ISLAND LAKE    CLEAR     19  18  93 SE7       29.88F WCI  10
PILOT MOUND      N/A     14  10  85 W6          N/A  WCI   5
THE PAS        PTCLDY    30  21  69 S8        29.71F WCI  23
THOMPSON       MOCLDY    25  23  93 S7        29.64F WCI  17
WINNIPEG       CLEAR      9   3  78 SW5       30.01F WCI   0
LYNN LAKE      PTCLDY    28  27  93 SW10G17   29.45F WCI  19
CHURCHILL      CRYSTALS  10   9  92 S18G24    29.53F WCI  -8
GILLAM         MOCLDY    21  19  93 S10G18    29.69F WCI  10
$$
                ***SASKATCHEWAN***

CITY           SKY/WX    TMP DP  RH WIND       PRES   REMARKS
ESTEVAN        PTCLDY    10   9  92 S10       30.01F WCI  -3
KINDERSLEY     PTCLDY    19  16  86 S13       29.72F WCI   7
LLOYDMINSTER   PTCLDY    27  18  69 S16       29.58F WCI  14
PRINCE ALBERT  MOCLDY    27  18  69 SW9       29.73F WCI  17
REGINA         PTCLDY    18  14  86 SE7       29.93S WCI   8
YORKTON        CLEAR     23  18  80 S12       29.89F WCC1F1C2F2C3F3C4F4C5F5C6F6C7F7C8F8C9F9CaFaCbFbCcFcCdFdCe!



USA.gov is the U.S. government's official web portal to all federal, state and local government web resources and services.